SL-16 DEB

基本信息
目录编号:
32005
目录名称:
SL-16 DEB
国际标识:
2004-021H
轨道中心:
EARTH
物体状态:
在轨
发射日期:
2004-06-10 UTC
轨道信息
数据来源: 国际轨道数据
星历时间: 2026-07-06T05:15:42+0800
半长轴: 7307.346km
偏心率: 0.0195341
轨道倾角: 71.087°
近地点辐角: 32.988°
升交点赤经: 48.528°
平近点角: 328.324°
近地点: 786.466km
远地点: 1071.952km
周期: 103.609分钟
每日圈数: 13.898351
详细信息
发射场:
TTMTR
轨道高度:
LEO
数据来源:
AOE Integration Group
参考系:
TEME
时间系统:
UTC
历元类型:
SGP4
2D轨道图
3D轨道图
轨道高度分析图
轨道倾角分析图
轨道综合分析图
查看轨道综合分析图